Wind_Speed
66 66 66 66 67 66 65 65 65 65 64 63 64 64 64 64 65 66 66 67 69 69 71 72 73 74 75 75 75 75 74 74 74 74 74 75 79 84
67 67 67 67 67 66 65 65 65 65 63 61 62 63 64 65 65 66 66 67 68 69 70 71 72 73 73 72 72 71 70 68 66 64 64 64 67 72
66 66 66 66 66 65 65 65 64 64 62 60 61 62 63 64 65 65 65 66 67 68 69 70 70 70 70 69 67 66 63 60 57 55 56 57 59 63
65 65 65 65 65 64 64 64 63 63 62 60 60 61 62 63 64 64 64 65 66 67 68 68 67 67 66 64 62 60 57 54 51 49 49 50 53 57
63 63 63 64 64 63 62 62 61 61 61 60 59 60 60 62 62 62 63 64 64 65 65 64 64 63 61 59 58 55 51 49 45 45 45 47 49 53
62 62 62 62 62 61 61 60 61 60 59 59 58 59 59 60 61 61 61 62 62 62 62 61 60 58 56 55 54 51 47 44 42 42 43 44 47 52
61 61 61 61 60 60 60 60 59 59 58 58 58 58 58 59 60 61 61 60 60 60 60 58 57 55 53 52 51 47 44 42 41 41 42 44 48 52
60 60 60 60 60 59 59 58 58 58 58 58 58 57 57 58 59 60 60 60 58 57 58 55 54 52 50 49 47 44 41 40 40 39 40 44 47 52
60 60 60 59 59 58 58 58 57 57 57 57 56 56 56 57 58 58 58 57 56 54 55 52 50 49 47 46 44 41 38 37 37 37 40 43 48 53
60 60 59 58 57 57 57 56 56 55 55 55 55 55 55 56 56 56 55 54 52 51 53 51 47 46 44 43 42 38 36 35 36 37 41 44 48 54
58 58 57 56 56 56 56 55 54 53 53 53 53 53 54 53 54 54 53 52 50 48 50 49 46 44 41 39 39 36 34 33 34 37 41 45 49 53
57 56 56 55 55 55 54 52 51 51 51 50 51 51 51 51 51 51 51 50 49 46 46 46 43 42 37 35 36 34 32 31 32 35 40 45 49 55
56 54 53 54 53 52 52 50 49 48 48 48 48 49 49 48 47 48 48 48 47 45 44 42 40 39 37 32 32 31 30 29 31 35 41 44 49 56
53 51 51 51 51 50 48 47 46 46 46 46 47 47 46 45 44 44 44 44 44 43 41 41 39 37 35 32 29 28 27 27 30 35 43 46 49 56
50 48 48 47 47 46 45 44 43 43 44 44 44 44 43 42 42 42 42 42 41 40 39 38 37 34 32 30 27 25 25 26 28 33 44 46 49 56
47 45 44 43 42 41 41 41 41 41 42 42 42 41 40 40 40 40 39 39 38 37 37 36 34 31 29 28 26 24 24 24 26 32 44 48 50 56
44 43 42 40 38 37 37 37 38 39 39 39 39 38 37 37 37 37 37 36 35 34 33 33 32 29 27 26 25 23 22 23 26 32 42 49 51 57
40 39 37 36 34 34 33 35 36 37 37 37 37 36 35 35 35 35 35 34 34 33 32 31 29 28 26 25 24 22 21 21 24 33 41 49 54 59
35 34 33 32 31 31 31 32 33 34 34 35 35 34 34 34 34 33 33 33 32 32 31 29 28 26 24 22 21 20 19 19 23 33 42 49 55 60
32 31 30 29 29 29 30 31 32 32 32 33 33 32 32 32 32 32 32 31 31 30 28 28 26 25 23 20 19 18 17 17 22 32 41 48 56 61
30 29 28 28 28 28 29 30 30 30 31 31 31 31 30 30 30 30 30 30 29 28 27 26 25 23 21 19 17 15 15 16 21 31 40 47 54 60
27 27 27 27 27 28 28 28 28 29 30 30 29 29 29 28 28 28 28 28 28 27 26 24 23 22 19 17 15 13 13 15 21 30 39 46 52 59
26 26 26 26 26 26 26 26 27 28 28 28 27 27 27 26 26 26 27 27 27 26 25 23 22 20 18 15 13 12 12 15 21 29 38 46 52 59
Wind_Direction
294 293 294 295 295 295 294 294 294 294 294 294 294 293 293 293 293 294 294 294 294 294 293 293 293 293 292 290 288 287 284 280 276 270 264 258 251 245
293 293 293 294 294 294 294 294 294 294 294 295 294 294 294 294 294 295 295 296 296 296 295 295 295 294 293 292 290 289 286 281 276 267 260 254 247 240
292 292 293 293 293 293 294 294 294 294 294 294 294 295 295 295 296 296 297 298 297 297 297 297 297 296 295 294 292 290 286 280 273 265 257 250 244 236
292 292 292 292 293 293 293 293 293 293 294 294 295 295 296 296 297 297 298 299 299 299 298 298 298 297 296 295 293 291 286 279 271 261 252 247 240 231
293 292 292 292 293 292 292 292 292 292 293 294 295 296 297 297 297 298 300 300 300 300 300 300 299 298 297 296 294 291 285 277 266 256 248 244 236 226
293 293 293 293 292 291 292 292 292 292 293 294 296 296 297 298 298 300 301 301 301 301 301 301 300 299 299 297 295 291 284 274 262 254 246 240 229 219
293 293 292 292 291 291 291 291 291 291 293 294 296 297 298 299 300 301 302 302 303 303 303 303 302 301 299 297 296 291 282 271 260 251 241 232 221 213
294 293 292 291 290 290 291 291 291 291 292 294 296 298 299 299 300 301 303 304 304 304 304 304 302 302 300 298 296 289 279 269 258 247 235 224 214 208
293 292 292 291 290 290 290 290 290 291 292 294 296 298 299 300 301 302 304 305 306 305 304 305 304 303 301 299 296 288 278 268 255 244 229 218 210 205
293 292 291 290 290 289 289 289 290 291 292 295 297 298 299 300 301 303 304 305 306 306 305 306 305 304 302 299 296 287 278 267 253 242 226 216 208 204
293 291 290 289 289 289 289 289 290 291 292 294 296 298 300 300 302 303 305 306 308 307 305 306 306 304 302 300 296 288 277 266 251 239 224 213 207 203
293 292 291 289 288 288 288 289 289 290 291 293 296 298 299 300 301 303 305 307 308 308 305 305 305 305 303 300 296 287 276 264 249 234 220 209 206 202
294 293 291 289 288 287 287 287 289 290 291 293 296 297 298 300 301 303 305 307 308 308 305 305 305 304 304 302 297 286 276 261 246 231 215 207 204 202
294 293 292 290 287 286 286 286 288 290 292 294 296 297 298 299 301 303 305 307 309 309 307 306 305 304 303 302 297 286 276 260 246 230 213 205 202 199
295 293 293 291 287 285 285 285 287 289 292 294 296 297 298 299 301 303 305 308 309 309 309 307 306 304 303 302 297 285 275 261 245 228 210 204 201 197
295 294 293 291 289 286 285 285 287 289 292 294 296 297 298 300 302 304 306 308 309 309 309 309 307 304 302 301 297 286 275 260 243 224 208 202 199 196
295 294 292 291 290 287 286 285 287 290 293 295 296 297 298 301 303 305 307 309 309 309 308 307 306 304 302 299 297 288 274 260 240 220 206 200 198 195
296 294 291 289 288 288 287 287 289 291 293 295 297 298 299 301 303 305 307 309 309 309 308 306 304 302 300 299 296 288 272 257 237 216 204 200 197 195
298 295 291 288 286 285 286 288 290 291 293 295 297 298 299 301 303 305 307 308 309 309 308 306 304 302 298 296 292 287 272 252 232 212 203 200 198 196
299 296 292 288 286 286 286 288 290 292 294 296 298 298 299 301 303 305 307 308 309 309 308 306 304 302 298 295 291 284 268 246 225 208 202 200 198 196
299 296 293 290 288 287 288 290 291 292 295 298 299 300 300 301 303 306 307 308 309 309 308 306 304 300 296 293 289 280 262 240 219 205 200 199 198 195
299 296 295 294 291 290 289 291 292 294 297 299 300 300 301 302 304 306 307 308 309 309 308 305 303 300 294 289 282 271 254 232 212 202 199 197 196 194
300 298 297 296 294 292 292 293 294 296 298 300 300 300 302 303 305 307 308 309 309 308 306 304 301 299 292 283 273 262 245 223 207 199 196 195 194 192
Height
5591 5585 5580 5575 5570 5565 5560 5555 5550 5546 5543 5538 5530 5523 5517 5512 5506 5500 5494 5487 5480 5473 5465 5458 5450 5443 5434 5426 5418 5411 5404 5398 5394 5391 5391 5393 5398 5406
5573 5568 5563 5558 5552 5547 5542 5536 5531 5527 5524 5521 5512 5505 5499 5493 5486 5480 5474 5467 5459 5450 5442 5434 5426 5417 5408 5400 5391 5383 5376 5370 5365 5363 5363 5365 5369 5377
5556 5550 5545 5540 5535 5529 5524 5519 5514 5509 5505 5503 5495 5488 5481 5474 5467 5460 5454 5446 5438 5429 5420 5411 5403 5393 5384 5375 5367 5359 5351 5345 5342 5340 5340 5343 5347 5355
5538 5533 5528 5522 5517 5512 5507 5501 5496 5491 5487 5484 5478 5470 5463 5455 5449 5442 5435 5426 5418 5409 5400 5390 5381 5371 5362 5353 5345 5337 5330 5325 5322 5321 5322 5325 5330 5336
5521 5516 5511 5505 5500 5495 5489 5484 5479 5474 5469 5465 5461 5453 5446 5438 5431 5424 5416 5407 5399 5389 5380 5371 5361 5351 5342 5333 5325 5318 5311 5307 5305 5304 5306 5309 5313 5320
5504 5499 5493 5488 5483 5477 5472 5467 5461 5457 5452 5447 5443 5436 5429 5420 5413 5406 5399 5390 5381 5371 5362 5352 5342 5333 5324 5316 5308 5301 5295 5291 5289 5289 5291 5294 5299 5307
5487 5481 5476 5470 5465 5459 5454 5449 5444 5439 5435 5430 5425 5419 5412 5403 5396 5388 5381 5373 5364 5353 5344 5335 5325 5317 5309 5300 5292 5285 5280 5276 5275 5275 5277 5281 5287 5295
5469 5464 5458 5452 5447 5442 5437 5432 5427 5423 5418 5413 5408 5402 5395 5386 5379 5371 5363 5356 5349 5339 5327 5320 5309 5302 5294 5286 5278 5272 5267 5263 5262 5263 5265 5269 5276 5285
5451 5446 5440 5435 5429 5425 5420 5415 5410 5406 5401 5396 5391 5385 5378 5370 5362 5355 5346 5338 5331 5321 5311 5305 5296 5288 5280 5272 5265 5259 5255 5252 5251 5252 5254 5259 5266 5275
5433 5428 5423 5418 5413 5408 5403 5399 5394 5389 5384 5380 5375 5369 5361 5354 5346 5339 5331 5324 5317 5306 5295 5289 5283 5275 5267 5260 5253 5247 5244 5241 5240 5241 5244 5250 5257 5265
5415 5410 5405 5401 5396 5390 5386 5383 5379 5374 5368 5364 5359 5352 5345 5338 5330 5323 5316 5309 5303 5295 5283 5275 5269 5262 5257 5249 5242 5237 5234 5232 5231 5232 5235 5241 5249 5257
5397 5393 5388 5383 5378 5373 5370 5367 5364 5359 5354 5349 5344 5338 5331 5324 5316 5309 5302 5295 5288 5282 5273 5263 5257 5250 5246 5241 5233 5228 5224 5223 5222 5224 5228 5234 5241 5250
5379 5375 5371 5365 5361 5357 5353 5351 5348 5344 5339 5335 5330 5324 5317 5311 5304 5297 5290 5282 5275 5269 5261 5253 5247 5239 5234 5231 5225 5219 5216 5215 5215 5217 5221 5228 5235 5245
5362 5357 5353 5348 5344 5340 5338 5336 5333 5329 5325 5321 5316 5311 5305 5299 5292 5285 5279 5271 5264 5257 5249 5242 5236 5230 5225 5221 5217 5213 5209 5208 5208 5210 5215 5222 5230 5241
5345 5341 5337 5332 5328 5325 5323 5321 5318 5315 5311 5308 5303 5298 5292 5286 5280 5274 5268 5261 5254 5246 5239 5232 5226 5221 5216 5213 5209 5206 5203 5202 5202 5204 5210 5217 5226 5237
5329 5325 5321 5317 5313 5311 5310 5307 5305 5302 5299 5295 5290 5285 5280 5275 5269 5263 5258 5251 5245 5238 5230 5224 5218 5213 5209 5206 5202 5199 5197 5196 5196 5199 5205 5213 5222 5233
5314 5311 5307 5305 5302 5299 5297 5295 5293 5290 5286 5283 5278 5274 5269 5264 5259 5253 5248 5242 5236 5230 5224 5217 5211 5207 5203 5199 5196 5193 5191 5191 5191 5194 5201 5210 5219 5230
5300 5297 5295 5292 5290 5288 5286 5284 5281 5278 5275 5271 5267 5263 5258 5254 5249 5243 5238 5233 5227 5221 5216 5210 5205 5201 5197 5194 5191 5188 5186 5186 5187 5191 5197 5206 5216 5227
5288 5286 5283 5281 5279 5278 5276 5273 5271 5268 5264 5261 5257 5252 5248 5244 5239 5234 5229 5224 5219 5214 5208 5203 5199 5195 5192 5189 5186 5183 5181 5181 5183 5188 5195 5203 5213 5224
5278 5275 5273 5271 5269 5267 5265 5263 5260 5257 5254 5251 5247 5243 5238 5234 5230 5225 5221 5216 5211 5206 5201 5196 5192 5188 5186 5184 5182 5179 5177 5178 5180 5184 5191 5200 5209 5221
5269 5266 5264 5262 5260 5258 5256 5253 5251 5248 5245 5241 5237 5233 5229 5225 5221 5217 5212 5208 5203 5199 5195 5190 5186 5183 5180 5178 5177 5176 5174 5175 5177 5182 5188 5197 5208 5220
5260 5258 5255 5253 5251 5249 5246 5244 5241 5239 5235 5232 5228 5224 5221 5217 5213 5209 5205 5201 5196 5192 5188 5184 5181 5177 5175 5174 5173 5172 5172 5172 5175 5179 5187 5195 5205 5220
5252 5250 5247 5245 5242 5240 5238 5235 5233 5230 5227 5223 5220 5216 5212 5209 5205 5201 5197 5193 5189 5185 5181 5178 5175 5172 5170 5169 5169 5169 5169 5170 5173 5179 5186 5194 5205 5217